Showing default

COSMOS 2213, 22184

Orbit data source: Space-Track

COSMOS 2213, 22184 is a payload satellite owned by VKS (CIS) in LEO that was launched on Tue, 20 Oct 1992 UTC via a TSIKLON-3 launch vehicle from the Plesetsk Missile And Space Complex (PKMTR). Payload-class satellites include a variety of spacecraft equipped with specific instruments for various scientific and technological missions. These include communications satellites like Starlink; space stations such as the ISS; scientific satellites like the Hubble; Earth observation satellites from companies like Planet Labs, Umbra, and HawkEye 360; GPS; miniature CubeSats for education and research; and military/defense satellites.

Loading next visibility...
Identifier
22184, 1992-068C
Orbit
LEO
Country
Flag of CISCIS
Related business
Manufacturer
NPO PM
Mission
Defense Communications
Bus & Motor
STRELA-3, Unknown motor
Mass
225 kg wet, 225 kg dry
Launch date (UTC)
1992-10-20 (33 years ago)
Launch vehicle
TSIKLON-3
Launch site
Plesetsk Missile And Space Complex (PKMTR)
Object type
Payload
Rocket body
Debris
Shape & HBR
Cyl, 0.8 m
Radar Cross Section
1.257 m², Large (>1 m²)

Expand to show TLE details & history
Last TLE update: 19 hours ago

TLE from 19 hours ago
0 COSMOS 2213
1 22184U 92068C   25293.96489472  .00000061  00000-0  28219-3 0  9994
2 22184  82.5976 139.3255 0002612 327.8348 147.9175 12.62604036520764
Epoch: 2025-10-20T23:09Z
TLE epoch observation values (Epoch: 2025-10-20T23:09:26.903Z)
Latitude
63.34333°
Longitude
-72.61966°
Altitude
1,424.798 km
Speed
7.154 km/s
True Right ascension
20h 17m 36s
True Declination
63° 13' 01"
Sunlit
Object was in daylight at epoch
Visualization orbit readout
Latitude
Unknown
Longitude
Unknown
Altitude
Unknown
Speed
Unknown
Apparent Right ascension
Unknown
Apparent Declination
Unknown
Sunlit
N/A
Visualization observer readout
Local Sidereal Time
13:25:01
Azimuth
Unknown
Elevation
Unknown
Doppler factor
Unknown
Orbital elements
Apogee altitude
1,411.568 km
Perigee altitude
1,407.5 km
Semi-major axis
7,787.671 km
Eccentricity
0.00026
Inclination
82.5976°
RAAN
139.3255°
Arg. of periapsis
327.8348°
True anomaly
147.93339°
Mean anomaly
147.9175°
Eccentric anomaly
147.92545°
Mean motion
3.15814 °/min
Orbital period
113.99 mins
BSTAR
0.00028219
Loading maneuver chart data...
Computing Atmospheric mass density...
Loading historical data...
Loading historical data...
Loading historical data...
Loading historical data...
Loading historical data...
Loading historical data...
Loading historical data...

Documentation

Showing up to 5 results
|